Regional Weather Roundup
Issued by NWS Northern Indiana

Home | Current Version | Previous Version | Graphics & Text | Print | Product List | Glossary On
Versions: 1 2 3 4 5 6 7 8 9 10 11 12 13 14 15 16 17 18 19 20 21 22 23 24 25 26 27 28 29 30 31 32 33 34 35 36 37 38 39 40 41 42 43 44 45 46 47 48 49 50
561
ASUS43 KIWX 250000
RWRIWX

KIWX WEATHER ROUNDUP
NATIONAL WEATHER SERVICE NORTHERN INDIANA
800 PM EDT TUE MAY 24 2016

NOTE: "FAIR" INDICATES FEW OR NO CLOUDS BELOW 12,000 FEET WITH NO
SIGNIFICANT WEATHER AND/OR OBSTRUCTIONS TO VISIBILITY.

* THESE STATIONS ARE NOT UNDER NWS QUALITY CONTROL. THEY ALSO MAY NOT
  REPORT WEATHER SUCH AS PRECIPITATION OR FOG.

INZ001>027-250100-
NORTHERN INDIANA

CITY           SKY/WX    TMP DP  RH WIND       PRES   REMARKS
GARY*          MOSUNNY   86  59  39 SW12      29.94R
SOUTH BEND     SUNNY     81  48  31 S8        29.97F
6HR MIN TEMP:  81; 6HR MAX TEMP:  85;

ELKHART*       MOSUNNY   81  57  44 S7        29.98F
GOSHEN         CLOUDY    79  47  32 SW9       29.99S
6HR MIN TEMP:  79; 6HR MAX TEMP:  84; 6HR PCP: TRACE;

ANGOLA*        CLEAR     81  52  36 SW10      30.01S
FORT WAYNE     PTCLDY    77  47  34 S8        30.02S
6HR MIN TEMP:  77; 6HR MAX TEMP:  84;


$$
INZ028>050-250100-
CENTRAL INDIANA

CITY           SKY/WX    TMP DP  RH WIND       PRES   REMARKS
LAFAYETTE      SUNNY     80  51  36 SW7       29.99R
6HR MIN TEMP:  80; 6HR MAX TEMP:  84;

KOKOMO*        SUNNY     81  52  36 SW10      30.00F
6HR MIN TEMP:  81; 6HR MAX TEMP:  84;

MUNCIE*        CLEAR     81  48  31 SW7       30.04R
6HR MIN TEMP:  81; 6HR MAX TEMP:  84;

INDIANAPOLIS   PTCLDY    77  54  44 SW10      30.02R
6HR MIN TEMP:  77; 6HR MAX TEMP:  82;


$$
MIZ043>046-050>051-056>058-064>065-071>073-077>080-250100-
SOUTHWEST LOWER MICHIGAN

CITY           SKY/WX    TMP DP  RH WIND       PRES   REMARKS
BATTLE CREEK   SUNNY     79  50  36 SW7       29.99F
6HR MIN TEMP:  79; 6HR MAX TEMP:  83;

BENTON HARBOR  SUNNY     81  49  32 SW5       29.95F
6HR MIN TEMP:  81; 6HR MAX TEMP:  83;

COLDWATER*     PTCLDY    79  47  32 SW6       30.00S
6HR MIN TEMP:  79; 6HR MAX TEMP:  83;

HILLSDALE*     CLEAR     79  38  22 SW6       30.02S
HOLLAND        SUNNY     78  52  40 S5        29.96F
6HR MIN TEMP:  78; 6HR MAX TEMP:  83;

GRAND RAPIDS   PTSUNNY   83  50  31 SW8       29.97F
6HR MIN TEMP:  82; 6HR MAX TEMP:  87;

KALAMAZOO      SUNNY     81  48  31 SW6       29.98S
6HR MIN TEMP:  81; 6HR MAX TEMP:  85;

STURGIS*       SUNNY     79  50  35 S9        29.99S
6HR MIN TEMP:  79; 6HR MAX TEMP:  83;

THREE RIVERS*  FAIR      82  44  26 SW9       29.98F

$$
OHZ001>008-015>018-024>025-250100-
NORTHWEST OHIO

CITY           SKY/WX    TMP DP  RH WIND       PRES   REMARKS
DEFIANCE       CLEAR     80  45  28 SW6       30.02R
6HR MIN TEMP:  80; 6HR MAX TEMP:  85;

FINDLAY        CLEAR     79  37  22 SW8       30.03R
6HR MIN TEMP:  79; 6HR MAX TEMP:  83;

TOLEDO EXPRESS CLEAR     81  46  29 W7        30.01R
6HR MIN TEMP:  81; 6HR MAX TEMP:  85;

TOLEDO METCALF CLEAR     81  45  28 SW8       30.02R
6HR MIN TEMP:  81; 6HR MAX TEMP:  85;

LIMA           CLEAR     78  44  29 W6        30.04R
6HR MIN TEMP:  78; 6HR MAX TEMP:  82;


$$
AND FOR LAKE MICHIGAN COASTAL AND OPEN LAKE BUOY OBSERVATIONS

STATION/POSITION TEMP    WIND        PRES    VSBY  WAVE
                 AIR SEA DIR/SP/G                  HT/PER
                 (F)     (DEG/KT/KT) (MB)    (MI)  (FT/S)
CALUMET HARBOR    86                 1012.8
MICHIGAN CITY     84     190/ 13/ 15   N/A
BURNS HARBOR      84     200/ 12/ 18 1013.9F
SAINT JOSEPH      82      CALM  /  2 1015.6S
SOUTH LAKE BUOY   57 49  130/ 10/ 10 1013.5          1
4 MI NW BRIDGMAN  74 64   90/  4/  4   N/A           0
MICHIGAN CITY     71 60  220/  6/  8   N/A           1

$$
&&




USA.gov is the U.S. government's official web portal to all federal, state and local government web resources and services.